User: anonymous
Location: Columbus
(29.5618°N, 96.6770°W)
Time: 11:41:11
(UTC-05:00)
Language:

Cosmos 2056 Rocket - Orbit

View from above orbital plane
View from above orbital plane
View from above satellite
View from above satellite

Ground track
Ground track

The orbit data is extracted from the following two-line orbital elements,

1 20433U 90004B   14293.61348412  .00000280  00000-0  10511-3 0  8511
2 20433 074.0364 337.6576 0041947 341.9976 129.5943 14.35689798295895
Epoch (UTC): 20 October 2014 14:43:25
Eccentricity: 0.0041947
inclination: 74.0364°
perigee height: 743 km
apogee height: 803 km
right ascension of ascending node: 337.6576°
argument of perigee: 341.9976°
revolutions per day: 14.35689798
mean anomaly at epoch: 129.5943°
orbit number at epoch: 29589

The dashed part of the orbit path shows where the satellite is in the earth's shadow,  

DLR